Regional Weather Roundup
Issued by NWS Charleston, WV

Home | Current Version | Previous Version | Text Only | Print | Product List | Glossary Off
Versions: 1 2 3 4 5 6 7 8 9 10 11 12 13 14 15 16 17 18 19 20 21 22 23 24 25 26 27

000
ASUS41 KRLX 182010
RWRRLX
West Virginia Regional Weather Roundup
National Weather Service Charleston WV
400 PM EDT FRI APR 18 2014

Note: "fair" indicates few or no clouds below 12,000 feet with no
significant weather and/or obstructions to visibility.

WVZ003-182100-
Northern Panhandle of West Virginia

CITY           SKY/WX    TMP DP  RH WIND       PRES   REMARKS
WHEELING       PTSUNNY   66  31  27 W9G17     30.22F
$$

WVZ009-182100-
Northwest West Virginia

CITY           SKY/WX    TMP DP  RH WIND       PRES   REMARKS
PARKERSBURG    MOSUNNY   71  31  22 VRB7      30.25F
$$

WVZ006-182100-
Western West Virginia

CITY           SKY/WX    TMP DP  RH WIND       PRES   REMARKS
HUNTINGTON     MOSUNNY   72  35  25 VRB6      30.23F
$$

WVZ015-182100-
West Central West Virginia

CITY           SKY/WX    TMP DP  RH WIND       PRES   REMARKS
CHARLESTON     PTSUNNY   71  37  28 N6        30.22F
$$

WVZ031-182100-
North Central West Virginia

CITY           SKY/WX    TMP DP  RH WIND       PRES   REMARKS
CLARKSBURG     MOSUNNY   70  27  20 W8G18     30.22F
MORGANTOWN     MOSUNNY   71  26  18 W8        30.22F
$$

WVZ035-042-045-182100-
South Central West Virginia

CITY           SKY/WX    TMP DP  RH WIND       PRES   REMARKS
BECKLEY        CLOUDY    63  25  23 VRB3      30.26F
BLUEFIELD      CLOUDY    63  28  26 CALM      30.27F
LEWISBURG      CLOUDY    60  30  32 SW7       30.27F
$$

WVZ047-182100-
Northern Mountains of West Virginia

CITY           SKY/WX    TMP DP  RH WIND       PRES   REMARKS
ELKINS         PTSUNNY   69  23  17 MISG      30.23F
$$

WVZ052-182100-
Eastern Panhandle of West Virginia

CITY           SKY/WX    TMP DP  RH WIND       PRES   REMARKS
MARTINSBURG    MOSUNNY   55  34  45 SW6       30.33F
PETERSBURG     MOSUNNY   70  42  36 NW3       30.25F
$$



USA.gov is the U.S. government's official web portal to all federal, state and local government web resources and services.